Volver al catálogo

STARLINK-5895

ActivoComunicacionesVLEO
NORAD 55964·PAYLOAD·🇺🇸 United States

Lanzado Mar 17, 2023 desde Vandenberg Space Force Base

Loading…

Próximos Pases (próximas 24 horas)

TLE

ActualizadoSource: CelesTrak SupGP

Época: Sep 15, 2026, 02:53 UTC

1 55964C 23037BC  26258.12062500  .00045533  00000+0  25745-2 0  2585
2 55964  69.9938 133.9377 0002023 314.6428 232.5553 15.12961162    13

Sigue STARLINK-5895 en tiempo real con AllMySat

Download on the App Store